SCCY

Teniente Vidal Airport

Airport
ICAO code
SCCY
IATA Code
GXQ
Summary
ICAO Region
CARSAM
ICAO Territory
Location

Coyhaique, Aisen del General Carlos Ibanez del Campo

Serving
Coyhaique
Elevation
1020 ft
Coordinates
45° 35' 39" S , 72° 6' 22" W
KCC
Metar
SCCY 222300Z VRB04KT 9999 BKN040 11/04 Q1010

Airport 4 km southwest of Coyhaique, Chile.

Climatology

Temperate oceanic climate (Köppen climate classification Cfb)

Runways

Designator Length Width Surface Rops
3/21 1546 30 ASP No/No

Airport map

Aerial View

SKYbrary Partners:

Safety knowledge contributed by: